Location: *
(17.3280°S, 114.7300°W)
Time: 14:38:10
(UTC+00:00)

Hubble Space Telescope - Pass Details

Date: 04 November 2020
Orbit: 536 x 540 km, 28.5° (Epoch: 29 November)

Event Time Altitude Azimuth Distance (km) Brightness Sun altitude
Rises 03:48:30 0° 275° (W) 2,674 5.1 -27.9°
Reaches altitude 10° 03:50:53 10° 266° (W) 1,786 4.2 -28.4°
Enters shadow 03:53:52 32° 226° (SW) 925 2.4 -29.0°
